This demonstration page uses our WeatherBlox Daily Observations layout. Learn more.

Left ArrowRight Arrow

44.89941, -97.11507

Hourly Observations for May 29, 2019

Temp ( °F °C ) Dew Point ( °F °C ) Humidity (%) Winds ( mph kmh ) Pressure ( in mb ) Visibility ( mi km ) Precip ( " mm )
12:53 am 00:53 Clear 49 9.4 43 6.1 80 80 N 3 6 29.81 1010 10 16 0.00 0.00
1:53 am 01:53 Clear 44 6.7 41 5 89 89 N 3 6 29.81 1010 10 16 0.00 0.00
2:53 am 02:53 Clear 45 7.2 42 5.6 90 90 N 5 7 29.80 1009 10 16 0.00 0.00
3:53 am 03:53 Clear 43 6.1 40 4.4 89 89 N 6 9 29.81 1010 9 14 0.00 0.00
4:53 am 04:53 Clear 44 6.7 41 5 89 89 N 5 7 29.81 1009 10 16 0.00 0.00
5:53 am 05:53 Sunny 43 6.1 40 4.4 89 89 N 5 7 29.81 1010 10 16 0.00 0.00
6:53 am 06:53 Sunny 47 8.3 43 6.1 86 86 N 6 9 29.82 1010 10 16 0.00 0.00
7:53 am 07:53 Sunny 51 10.6 46 7.8 83 83 N 8 13 29.81 1010 10 16 0.00 0.00
8:53 am 08:53 Sunny 56 13.3 47 8.3 72 72 N 7 11 29.81 1010 10 16 0.00 0.00
9:53 am 09:53 Sunny 59 15 48 8.9 67 67 Calm 29.81 1010 10 16 0.00 0.00
10:53 am 10:53 Sunny 64 17.8 45 7.2 50 50 N 6 9 29.81 1009 10 16 0.00 0.00
11:53 am 11:53 Sunny 67 19.4 40 4.4 37 37 Calm 29.80 1009 10 16 0.00 0.00
12:53 pm 12:53 Sunny 68 20 43 6.1 40 40 S 3 6 29.80 1009 10 16 0.00 0.00
1:53 pm 13:53 Mostly Sunny 70 21.1 43 6.1 38 38 SSW 7 11 29.80 1009 10 16 0.00 0.00
2:53 pm 14:53 Mostly Sunny 71 21.7 42 5.6 35 35 ESE 5 7 29.79 1009 10 16 0.00 0.00
3:53 pm 15:53 Mostly Sunny 72 22.2 42 5.6 34 34 S 3 6 29.77 1008 10 16 0.00 0.00
4:53 pm 16:53 Sunny 74 23.3 44 6.7 34 34 S 6 9 29.74 1007 10 16 0.00 0.00
5:53 pm 17:53 Sunny 73 22.8 44 6.7 35 35 S 7 11 29.74 1007 10 16 0.00 0.00
6:53 pm 18:53 Sunny 73 22.8 46 7.8 38 38 S 5 7 29.73 1007 10 16 0.00 0.00
7:53 pm 19:53 Sunny 72 22.2 44 6.7 37 37 Calm 29.73 1007 10 16 0.00 0.00
8:53 pm 20:53 Sunny 64 17.8 47 8.3 54 54 S 5 7 29.75 1007 10 16 0.00 0.00
9:53 pm 21:53 Clear 61 16.1 47 8.3 60 60 SSE 3 6 29.76 1008 10 16 0.00 0.00
10:53 pm 22:53 Clear 59 15 47 8.3 64 64 SSE 6 9 29.77 1008 10 16 0.00 0.00
11:53 pm 23:53 Clear 54 12.2 47 8.3 77 77 S 3 6 29.76 1008 10 16 0.00 0.00

Powered by AerisWeather